TimeMST,TemperatureF,Dew PointF,Humidity,Sea Level PressureIn,VisibilityMPH,Wind Direction,Wind SpeedMPH,Gust SpeedMPH,PrecipitationIn,Events,Conditions,WindDirDegrees,DateUTC
12:15 AM,59.0,26.6,29,30.06,10.0,NNE,5.8,-,N/A,,Overcast,30,2012-11-16 07:15:00
12:35 AM,57.2,26.6,31,30.06,10.0,NNE,4.6,-,N/A,,Overcast,20,2012-11-16 07:35:00
12:55 AM,57.2,24.8,29,30.05,10.0,NNW,8.1,-,N/A,,Mostly Cloudy,340,2012-11-16 07:55:00
1:15 AM,57.2,24.8,29,30.05,10.0,North,6.9,-,N/A,,Mostly Cloudy,10,2012-11-16 08:15:00
1:35 AM,55.4,23.0,29,30.05,10.0,North,9.2,-,N/A,,Mostly Cloudy,10,2012-11-16 08:35:00
1:55 AM,55.4,23.0,29,30.04,10.0,North,4.6,-,N/A,,Overcast,360,2012-11-16 08:55:00
2:15 AM,53.6,23.0,30,30.04,10.0,North,6.9,-,N/A,,Mostly Cloudy,350,2012-11-16 09:15:00
2:35 AM,53.6,23.0,30,30.04,10.0,NNW,4.6,-,N/A,,Mostly Cloudy,340,2012-11-16 09:35:00
2:55 AM,51.8,21.2,30,30.04,9.0,North,4.6,-,N/A,,Partly Cloudy,350,2012-11-16 09:55:00
3:15 AM,51.8,21.2,30,30.05,10.0,NNE,4.6,-,N/A,,Partly Cloudy,20,2012-11-16 10:15:00
3:35 AM,51.8,19.4,28,30.04,10.0,NNE,4.6,-,N/A,,Clear,20,2012-11-16 10:35:00
3:55 AM,51.8,19.4,28,30.04,10.0,North,3.5,-,N/A,,Unknown,10,2012-11-16 10:55:00
4:15 AM,48.2,19.4,32,30.03,10.0,NE,3.5,-,N/A,,Unknown,40,2012-11-16 11:15:00
4:35 AM,48.2,19.4,32,30.03,10.0,ENE,4.6,-,N/A,,Mostly Cloudy,60,2012-11-16 11:35:00
4:55 AM,51.8,21.2,30,30.03,10.0,East,4.6,-,N/A,,Scattered Clouds,100,2012-11-16 11:55:00
5:15 AM,50.0,19.4,30,30.03,10.0,East,3.5,-,N/A,,Clear,90,2012-11-16 12:15:00
5:35 AM,46.4,19.4,34,30.04,10.0,Calm,Calm,-,N/A,,Unknown,0,2012-11-16 12:35:00
5:55 AM,44.6,19.4,37,30.05,4.0,Calm,Calm,-,N/A,,Clear,0,2012-11-16 12:55:00
6:15 AM,46.4,19.4,34,30.05,9.0,Calm,Calm,-,N/A,,Mostly Cloudy,0,2012-11-16 13:15:00
6:35 AM,46.4,21.2,37,30.05,8.0,Calm,Calm,-,N/A,,Overcast,0,2012-11-16 13:35:00
6:55 AM,48.2,19.4,32,30.06,10.0,Calm,Calm,-,N/A,,Scattered Clouds,0,2012-11-16 13:55:00
7:15 AM,46.4,19.4,34,30.07,9.0,North,4.6,-,N/A,,Clear,10,2012-11-16 14:15:00
7:35 AM,46.4,19.4,34,30.08,8.0,Calm,Calm,-,N/A,,Clear,0,2012-11-16 14:35:00
7:55 AM,50.0,21.2,32,30.08,5.0,Calm,Calm,-,N/A,,Clear,0,2012-11-16 14:55:00
8:15 AM,50.0,23.0,35,30.09,5.0,Calm,Calm,-,N/A,,Clear,0,2012-11-16 15:15:00
8:35 AM,53.6,24.8,33,30.10,7.0,Calm,Calm,-,N/A,,Clear,0,2012-11-16 15:35:00
8:55 AM,55.4,26.6,33,30.11,8.0,Calm,Calm,-,N/A,,Clear,0,2012-11-16 15:55:00
9:15 AM,55.4,26.6,33,30.12,10.0,West,3.5,-,N/A,,Clear,270,2012-11-16 16:15:00
9:35 AM,57.2,28.4,33,30.12,9.0,Calm,Calm,-,N/A,,Clear,0,2012-11-16 16:35:00
9:55 AM,59.0,24.8,27,30.12,10.0,NNE,3.5,-,N/A,,Clear,30,2012-11-16 16:55:00
10:15 AM,62.6,23.0,22,30.12,10.0,Calm,Calm,-,N/A,,Clear,0,2012-11-16 17:15:00
10:35 AM,64.4,21.2,19,30.13,10.0,Calm,Calm,-,N/A,,Clear,0,2012-11-16 17:35:00
10:55 AM,66.2,23.0,19,30.12,9.0,Calm,Calm,-,N/A,,Clear,0,2012-11-16 17:55:00
11:15 AM,66.2,21.2,18,30.11,10.0,North,3.5,-,N/A,,Clear,10,2012-11-16 18:15:00
11:35 AM,69.8,21.2,16,30.10,10.0,ENE,3.5,-,N/A,,Clear,70,2012-11-16 18:35:00
11:55 AM,71.6,24.8,17,30.09,10.0,East,4.6,-,N/A,,Clear,80,2012-11-16 18:55:00
12:15 PM,71.6,24.8,17,30.08,10.0,SSE,6.9,-,N/A,,Clear,150,2012-11-16 19:15:00
12:35 PM,73.4,24.8,16,30.07,9.0,ESE,3.5,-,N/A,,Clear,110,2012-11-16 19:35:00
12:55 PM,73.4,26.6,18,30.06,8.0,SE,6.9,-,N/A,,Clear,130,2012-11-16 19:55:00
1:15 PM,73.4,26.6,18,30.06,9.0,SSE,4.6,-,N/A,,Clear,150,2012-11-16 20:15:00
1:35 PM,75.2,24.8,15,30.05,9.0,SSE,4.6,-,N/A,,Clear,150,2012-11-16 20:35:00
1:55 PM,75.2,24.8,15,30.04,9.0,SE,5.8,-,N/A,,Clear,130,2012-11-16 20:55:00
2:15 PM,75.2,26.6,17,30.04,8.0,South,8.1,-,N/A,,Clear,170,2012-11-16 21:15:00
2:35 PM,75.2,23.0,14,30.04,9.0,South,6.9,-,N/A,,Clear,170,2012-11-16 21:35:00
2:55 PM,75.2,21.2,13,30.04,9.0,SSE,5.8,-,N/A,,Clear,160,2012-11-16 21:55:00
3:15 PM,77.0,19.4,12,30.04,10.0,Calm,Calm,-,N/A,,Clear,0,2012-11-16 22:15:00
3:35 PM,77.0,23.0,13,30.03,10.0,SW,4.6,-,N/A,,Clear,220,2012-11-16 22:35:00
3:55 PM,77.0,19.4,12,30.03,10.0,SW,4.6,-,N/A,,Clear,230,2012-11-16 22:55:00
4:15 PM,77.0,17.6,11,30.03,10.0,SW,3.5,-,N/A,,Clear,230,2012-11-16 23:15:00
4:35 PM,75.2,17.6,11,30.03,10.0,SSW,4.6,-,N/A,,Clear,200,2012-11-16 23:35:00
4:55 PM,75.2,17.6,11,30.02,10.0,Calm,Calm,-,N/A,,Clear,0,2012-11-16 23:55:00
5:15 PM,75.2,17.6,11,30.02,10.0,Calm,Calm,-,N/A,,Clear,0,2012-11-17 00:15:00
5:35 PM,73.4,17.6,12,30.02,10.0,Calm,Calm,-,N/A,,Clear,0,2012-11-17 00:35:00
6:15 PM,68.0,19.4,16,30.03,10.0,Calm,Calm,-,N/A,,Clear,0,2012-11-17 01:15:00
6:55 PM,64.4,17.6,16,30.03,10.0,NE,5.8,-,N/A,,Clear,40,2012-11-17 01:55:00
7:15 PM,62.6,15.8,16,30.03,10.0,NE,5.8,-,N/A,,Clear,40,2012-11-17 02:15:00
7:35 PM,62.6,15.8,16,30.03,10.0,NNE,6.9,-,N/A,,Clear,30,2012-11-17 02:35:00
7:55 PM,62.6,15.8,16,30.04,10.0,NNE,5.8,-,N/A,,Clear,30,2012-11-17 02:55:00
8:15 PM,60.8,15.8,17,30.04,10.0,NE,5.8,-,N/A,,Clear,40,2012-11-17 03:15:00
9:15 PM,59.0,23.0,25,30.06,10.0,NE,3.5,-,N/A,,Clear,50,2012-11-17 04:15:00
9:35 PM,59.0,14.0,17,30.06,10.0,NE,6.9,-,N/A,,Clear,50,2012-11-17 04:35:00
9:55 PM,59.0,15.8,19,30.06,10.0,NE,5.8,-,N/A,,Unknown,40,2012-11-17 04:55:00
10:15 PM,57.2,15.8,20,30.06,10.0,NNE,5.8,-,N/A,,Unknown,30,2012-11-17 05:15:00
10:35 PM,57.2,15.8,20,30.06,10.0,NNE,5.8,-,N/A,,Clear,30,2012-11-17 05:35:00
10:55 PM,57.2,15.8,20,30.06,10.0,NNE,3.5,-,N/A,,Clear,20,2012-11-17 05:55:00
11:15 PM,55.4,15.8,21,30.06,10.0,NNW,6.9,-,N/A,,Clear,330,2012-11-17 06:15:00
11:35 PM,55.4,17.6,23,30.06,6.0,NNW,8.1,-,N/A,,Clear,340,2012-11-17 06:35:00
11:55 PM,55.4,17.6,23,30.05,10.0,North,8.1,-,N/A,,Clear,350,2012-11-17 06:55:00